Location: Kellogg
(38.0159°N, 90.0546°W)
Time: 11:53:39
(UTC+00:00)

Courier 1B - Pass Details

Date: 14 September 2024
Orbit: 962 x 1208 km, 28.3° (Epoch: 11 October)

Event Time Altitude Azimuth Distance (km) Brightness Sun altitude
Rises 23:03:17 0° 259° (W) 3,998 12.8 12.1°
Reaches altitude 10° 23:06:14 10° 252° (WSW) 3,067 12.3 11.5°
Maximum altitude 23:13:11 39° 187° (S) 1,722 9.1 10.1°
Drops below altitude 10° 23:20:19 10° 122° (ESE) 3,139 9.7 8.7°
Sets 23:23:23 0° 115° (ESE) 4,102 10.2 8.1°
